FW4653 Weather Reports


time (UTC)temp
F
wind
direction
speed
knots
gust
knots
rain 1hr
in
rain 24hr
in
rain mn
in
humidity
%
barometer
mb
20260506131522 52 360 3.5 8.7 0.00 0.00 0.00 84 1014.4
20260506130014 52 360 2.6 8.7 0.00 0.00 0.00 84 1013.9
20260506124549 52 360 1.7 7.8 0.00 0.00 0.00 84 1013.8
20260506123044 52 360 1.7 7.8 0.00 0.00 0.00 84 1014.0
20260506121519 52 360 2.6 7.0 0.00 0.00 0.00 83 1013.7
20260506120010 52 360 3.5 9.6 0.00 0.00 0.00 83 1013.6
20260506114542 52 360 4.3 9.6 0.00 0.00 0.00 82 1013.3
20260506113049 53 360 2.6 7.8 0.00 0.00 0.00 80 1013.2
20260506111538 53 360 2.6 9.6 0.00 0.00 0.00 78 1012.8
20260506110021 54 360 3.5 8.7 0.00 0.00 0.00 77 1012.6
20260506104600 54 360 2.6 8.7 0.00 0.00 0.00 76 1012.1
20260506104506 54 360 2.6 8.7 0.00 0.00 0.00 76 1012.1
20260506103043 55 360 2.6 10.4 0.00 0.00 0.00 76 1012.1
20260506101534 55 360 4.3 8.7 0.00 0.00 0.00 76 1011.9
20260506100003 55 360 2.6 8.7 0.00 0.00 0.00 76 1011.7
20260506094605 56 360 3.5 9.6 0.00 0.00 0.00 76 1011.4
20260506093031 56 360 2.6 7.8 0.00 0.00 0.00 76 1011.2
20260506091522 56 360 1.7 8.7 0.00 0.00 0.00 76 1010.9
20260506090049 56 360 3.5 8.7 0.00 0.00 0.00 76 1010.9
20260506084523 56 360 2.6 5.2 0.00 0.00 0.00 76 1010.7
20260506083007 56 360 1.7 7.8 0.00 0.00 0.00 76 1010.8
20260506081557 57 360 1.7 7.0 0.00 0.00 0.00 77 1010.8
20260506073053 57 360 0.9 4.3 0.00 0.00 0.00 78 1010.2
20260506071539 57 360 1.7 4.3 0.00 0.00 0.00 78 1009.7
20260506061558 58 360 1.7 7.8 0.00 0.00 0.00 78 1010.2
20260506044550 59 360 3.5 8.7 0.00 0.00 0.00 79 1010.1
20260506043018 60 360 4.3 10.4 0.00 0.00 0.00 80 1010.2
20260506041533 60 360 4.3 9.6 0.00 0.00 0.00 79 1010.1
20260506040059 61 360 3.5 8.7 0.00 0.00 0.00 79 1010.0
20260506034524 61 360 3.5 9.6 0.00 0.00 0.00 79 1009.8
20260506033039 62 360 4.3 9.6 0.00 0.00 0.00 79 1009.1
20260506031600 62 360 3.5 8.7 0.00 0.00 0.00 78 1009.1
20260506030034 63 360 5.2 11.3 0.00 0.00 0.00 77 1008.9
20260506024545 64 360 2.6 8.7 0.00 0.00 0.00 77 1008.5
20260506023018 65 360 3.5 12.2 0.00 0.00 0.00 76 1008.6
20260506021536 66 360 2.6 8.7 0.00 0.00 0.00 77 1007.8
20260506020025 66 360 0.9 5.2 0.00 0.00 0.00 76 1007.2
20260506014512 67 360 2.6 5.2 0.00 0.00 0.00 75 1007.3
20260506013039 67 360 1.7 4.3 0.00 0.00 0.00 74 1006.9
20260506011511 67 348 1.7 7.8 0.00 0.00 0.00 73 1006.5
20260506010051 68 360 2.6 7.0 0.00 0.00 0.00 72 1006.2
20260506004539 69 342 2.6 10.4 0.00 0.00 0.00 72 1005.9
20260506003010 70 26 1.7 7.8 0.00 0.00 0.00 71 1005.2
20260506001538 71 337 4.3 9.6 0.00 0.00 0.00 70 1005.3
20260506000032 72 360 2.6 10.4 0.00 0.00 0.00 70 1005.6
20260505234521 74 360 4.3 10.4 0.00 0.00 0.00 69 1005.5
20260505233110 75 360 4.3 10.4 0.00 0.00 0.00 67 1005.2
20260505231552 77 15 2.6 8.7 0.00 0.00 0.00 64 1004.8
20260505230035 78 321 2.6 7.0 0.00 0.00 0.00 64 1004.7
20260505224519 80 308 2.6 7.0 0.00 0.00 0.00 62 1004.7
20260505223059 81 296 2.6 8.7 0.00 0.00 0.00 60 1004.3
20260505223003 81 295 2.6 8.7 0.00 0.00 0.00 60 1004.4
20260505221553 83 291 1.7 7.0 0.00 0.00 0.00 57 1004.0
20260505220039 84 327 3.5 7.8 0.00 0.00 0.00 56 1004.0
20260505214523 85 327 1.7 8.7 0.00 0.00 0.00 56 1003.8
20260505213011 87 300 2.6 9.6 0.00 0.00 0.00 51 1003.9
20260505211545 87 360 1.7 10.4 0.00 0.00 0.00 49 1003.9
20260505210033 87 360 3.5 8.7 0.00 0.00 0.00 48 1004.1
20260505204518 88 279 2.6 7.0 0.00 0.00 0.00 50 1004.1
20260505203058 89 248 1.7 7.8 0.00 0.00 0.00 58 1004.0
20260505201514 88 212 2.6 6.1 0.00 0.00 0.00 58 1004.1
20260505200039 88 192 0.9 6.1 0.00 0.00 0.00 59 1004.4
20260505194609 89 225 1.7 7.8 0.00 0.00 0.00 60 1004.2
20260505193024 88 242 1.7 7.8 0.00 0.00 0.00 60 1004.3
20260505191545 88 130 0.9 7.8 0.00 0.00 0.00 63 1004.1
20260505190100 87 144 3.5 7.0 0.00 0.00 0.00 62 1004.2
20260505190003 86 218 3.5 7.0 0.00 0.00 0.00 62 1004.2
20260505184534 85 207 2.6 7.8 0.00 0.00 0.00 65 1004.0
20260505183047 84 178 2.6 11.3 0.00 0.00 0.00 63 1004.4
20260505181520 84 174 3.5 8.7 0.00 0.00 0.00 64 1004.4
20260505180042 85 183 2.6 10.4 0.00 0.00 0.00 64 1004.6
20260505174514 85 213 2.6 7.0 0.00 0.00 0.00 65 1004.4
20260505173046 84 155 2.6 8.7 0.00 0.00 0.00 68 1004.3
20260505171524 82 182 4.3 8.7 0.00 0.00 0.00 69 1004.4
20260505170055 81 192 2.6 6.1 0.00 0.00 0.00 70 1004.4
20260505164534 80 190 3.5 8.7 0.00 0.00 0.00 72 1004.4
20260505163056 80 144 2.6 7.8 0.00 0.00 0.00 73 1004.3
20260505161522 78 207 3.5 8.7 0.00 0.00 0.00 74 1004.2
20260505153032 77 167 2.6 7.8 0.00 0.00 0.00 76 1004.1
20260505151506 76 215 1.7 10.4 0.00 0.00 0.00 76 1004.0